| time (UTC) | temp F | wind direction | speed MPH | gust MPH | rain 1hr in | rain 24hr in | rain mn in | humidity % | barometer mb |
| 20260903144543 | 66 | 137 | 1.0 | 8.0 | 0.00 | 0.00 | 0.00 | 48 | 1003.4 |
| 20260903143102 | 65 | 355 | 3.0 | 9.0 | 0.00 | 0.00 | 0.00 | 50 | 1003.6 |
| 20260903141540 | 64 | 31 | 0.0 | 5.0 | 0.00 | 0.00 | 0.00 | 55 | 1003.6 |
| 20260903140034 | 64 | 129 | 1.0 | 11.0 | 0.00 | 0.00 | 0.00 | 56 | 1003.7 |
| 20260903134532 | 63 | 150 | 1.0 | 5.0 | 0.00 | 0.00 | 0.00 | 57 | 1003.9 |
| 20260903133030 | 63 | 155 | 4.0 | 8.0 | 0.00 | 0.00 | 0.00 | 55 | 1004.1 |
| 20260903131528 | 63 | 345 | 2.0 | 10.0 | 0.00 | 0.00 | 0.00 | 55 | 1004.3 |
| 20260903130026 | 62 | 65 | 1.0 | 9.0 | 0.00 | 0.00 | 0.00 | 55 | 1004.5 |
| 20260903124532 | 62 | 27 | 3.0 | 13.0 | 0.00 | 0.00 | 0.00 | 56 | 1004.6 |
| 20260903123036 | 63 | 78 | 4.0 | 10.0 | 0.00 | 0.00 | 0.00 | 57 | 1004.5 |
| 20260903121531 | 62 | 100 | 3.0 | 16.0 | 0.00 | 0.00 | 0.00 | 58 | 1004.7 |
| 20260903120021 | 61 | 124 | 4.0 | 11.0 | 0.00 | 0.00 | 0.00 | 60 | 1004.8 |
| 20260903114520 | 61 | 89 | 3.0 | 16.0 | 0.00 | 0.00 | 0.00 | 63 | 1004.9 |
| 20260903113033 | 59 | 148 | 2.0 | 13.0 | 0.00 | 0.00 | 0.00 | 65 | 1004.9 |
| 20260903111520 | 60 | 142 | 3.0 | 11.0 | 0.00 | 0.00 | 0.00 | 62 | 1004.9 |
| 20260903110018 | 60 | 170 | 3.0 | 9.0 | 0.00 | 0.00 | 0.00 | 63 | 1005.1 |
| 20260903104517 | 62 | 302 | 6.0 | 14.0 | 0.00 | 0.00 | 0.00 | 60 | 1004.9 |
| 20260903103013 | 61 | 149 | 1.0 | 7.0 | 0.00 | 0.00 | 0.00 | 63 | 1005.0 |
| 20260903101512 | 61 | 114 | 2.0 | 11.0 | 0.00 | 0.00 | 0.00 | 61 | 1005.1 |
| 20260903100011 | 61 | 89 | 4.0 | 9.0 | 0.00 | 0.00 | 0.00 | 64 | 1005.1 |
| 20260903094508 | 60 | 147 | 1.0 | 16.0 | 0.00 | 0.00 | 0.00 | 67 | 1005.1 |
| 20260903093010 | 60 | 316 | 3.0 | 13.0 | 0.00 | 0.00 | 0.00 | 68 | 1005.2 |
| 20260903091515 | 60 | 81 | 1.0 | 7.0 | 0.00 | 0.00 | 0.00 | 68 | 1005.1 |
| 20260903090100 | 59 | 126 | 2.0 | 7.0 | 0.00 | 0.00 | 0.00 | 69 | 1005.1 |
| 20260903084558 | 58 | 109 | 3.0 | 13.0 | 0.00 | 0.00 | 0.00 | 69 | 1005.3 |
| 20260903083056 | 58 | 356 | 5.0 | 12.0 | 0.00 | 0.00 | 0.00 | 70 | 1005.3 |
| 20260903081553 | 58 | 348 | 1.0 | 10.0 | 0.00 | 0.00 | 0.00 | 72 | 1005.2 |
| 20260903080054 | 57 | 186 | 1.0 | 11.0 | 0.00 | 0.00 | 0.00 | 73 | 1005.3 |
| 20260903074546 | 56 | 143 | 4.0 | 12.0 | 0.00 | 0.00 | 0.00 | 74 | 1005.2 |
| 20260903073045 | 56 | 321 | 2.0 | 10.0 | 0.00 | 0.00 | 0.00 | 75 | 1005.1 |
| 20260903071542 | 55 | 96 | 3.0 | 13.0 | 0.00 | 0.00 | 0.00 | 76 | 1005.2 |
| 20260903070036 | 55 | 349 | 4.0 | 8.0 | 0.00 | 0.00 | 0.00 | 76 | 1005.3 |
| 20260903064535 | 55 | 209 | 2.0 | 10.0 | 0.00 | 0.00 | 0.00 | 78 | 1005.3 |
| 20260903063032 | 54 | 226 | 2.0 | 10.0 | 0.00 | 0.00 | 0.00 | 79 | 1005.4 |
| 20260903061531 | 54 | 323 | 1.0 | 11.0 | 0.00 | 0.00 | 0.00 | 79 | 1005.5 |
| 20260903060029 | 53 | 71 | 2.0 | 8.0 | 0.00 | 0.00 | 0.00 | 80 | 1005.4 |
| 20260903054528 | 52 | 87 | 2.0 | 7.0 | 0.00 | 0.00 | 0.00 | 81 | 1005.4 |
| 20260903053027 | 51 | 345 | 1.0 | 14.0 | 0.00 | 0.00 | 0.00 | 83 | 1005.5 |
| 20260903051525 | 50 | 341 | 2.0 | 7.0 | 0.00 | 0.00 | 0.00 | 85 | 1005.5 |
| 20260903050025 | 50 | 63 | 1.0 | 6.0 | 0.00 | 0.00 | 0.00 | 86 | 1005.5 |
| 20260903044524 | 49 | 50 | 0.0 | 5.0 | 0.00 | 0.00 | 0.00 | 87 | 1005.6 |
| 20260903043031 | 49 | 60 | 1.0 | 6.0 | 0.00 | 0.00 | 0.00 | 88 | 1005.6 |
| 20260903041522 | 49 | 27 | 0.0 | 3.0 | 0.00 | 0.00 | 0.00 | 88 | 1005.6 |
| 20260903040021 | 49 | 61 | 0.0 | 6.0 | 0.00 | 0.00 | 0.00 | 89 | 1005.6 |
| 20260903034527 | 49 | 131 | 1.0 | 9.0 | 0.00 | 0.00 | 0.00 | 89 | 1005.6 |
| 20260903033018 | 50 | 41 | 0.0 | 6.0 | 0.00 | 0.00 | 0.00 | 90 | 1005.5 |
| 20260903031516 | 50 | 342 | 0.0 | 7.0 | 0.00 | 0.00 | 0.00 | 90 | 1005.5 |
| 20260903030017 | 50 | 348 | 0.0 | 4.0 | 0.00 | 0.00 | 0.00 | 91 | 1005.5 |
| 20260903024514 | 50 | 349 | 1.0 | 9.0 | 0.00 | 0.00 | 0.00 | 92 | 1005.5 |
| 20260903023013 | 50 | 321 | 1.0 | 5.0 | 0.00 | 0.00 | 0.00 | 92 | 1005.5 |
| 20260903021513 | 50 | 15 | 1.0 | 5.0 | 0.00 | 0.00 | 0.00 | 92 | 1005.7 |
| 20260903020008 | 50 | 25 | 0.0 | 5.0 | 0.00 | 0.00 | 0.00 | 91 | 1005.7 |
| 20260903014506 | 51 | 330 | 1.0 | 5.0 | 0.00 | 0.00 | 0.00 | 91 | 1005.7 |
| 20260903013006 | 51 | 330 | 2.0 | 5.0 | 0.00 | 0.00 | 0.00 | 91 | 1005.7 |
| 20260903011504 | 51 | 352 | 1.0 | 6.0 | 0.00 | 0.00 | 0.00 | 90 | 1005.8 |
| 20260903010004 | 51 | 63 | 0.0 | 4.0 | 0.00 | 0.00 | 0.00 | 90 | 1005.8 |
| 20260903004502 | 51 | 321 | 1.0 | 6.0 | 0.00 | 0.00 | 0.00 | 90 | 1005.9 |
| 20260903003002 | 51 | 336 | 0.0 | 4.0 | 0.00 | 0.00 | 0.00 | 90 | 1005.9 |
| 20260903001559 | 51 | 315 | 0.0 | 4.0 | 0.00 | 0.00 | 0.00 | 89 | 1005.9 |
| 20260903000058 | 52 | 25 | 0.0 | 3.0 | 0.00 | 0.00 | 0.00 | 89 | 1006.1 |
| 20260902234605 | 52 | 79 | 0.0 | 4.0 | 0.00 | 0.00 | 0.00 | 88 | 1006.2 |
| 20260902233054 | 52 | 352 | 1.0 | 9.0 | 0.00 | 0.00 | 0.00 | 88 | 1006.2 |
| 20260902231557 | 52 | 73 | 0.0 | 6.0 | 0.00 | 0.00 | 0.00 | 87 | 1006.2 |
| 20260902230051 | 53 | 58 | 1.0 | 7.0 | 0.00 | 0.00 | 0.00 | 87 | 1006.3 |
| 20260902224548 | 53 | 124 | 0.0 | 10.0 | 0.00 | 0.00 | 0.00 | 86 | 1006.3 |
| 20260902223048 | 53 | 358 | 1.0 | 7.0 | 0.00 | 0.00 | 0.00 | 85 | 1006.4 |
| 20260902221544 | 53 | 49 | 1.0 | 6.0 | 0.00 | 0.00 | 0.00 | 84 | 1006.5 |
| 20260902220042 | 54 | 306 | 1.0 | 7.0 | 0.00 | 0.00 | 0.00 | 84 | 1006.5 |
| 20260902214542 | 54 | 328 | 2.0 | 7.0 | 0.00 | 0.00 | 0.00 | 83 | 1006.6 |
| 20260902213041 | 54 | 323 | 1.0 | 5.0 | 0.00 | 0.00 | 0.00 | 82 | 1006.6 |
| 20260902211537 | 55 | 74 | 2.0 | 9.0 | 0.00 | 0.00 | 0.00 | 80 | 1006.6 |
| 20260902210037 | 55 | 114 | 2.0 | 7.0 | 0.00 | 0.00 | 0.00 | 79 | 1006.6 |
| 20260902204535 | 55 | 50 | 2.0 | 6.0 | 0.00 | 0.00 | 0.00 | 78 | 1006.6 |
| 20260902203035 | 55 | 25 | 1.0 | 8.0 | 0.00 | 0.00 | 0.00 | 77 | 1006.5 |
| 20260902201535 | 56 | 47 | 0.0 | 7.0 | 0.00 | 0.00 | 0.00 | 75 | 1006.5 |
| 20260902200034 | 56 | 19 | 0.0 | 6.0 | 0.00 | 0.00 | 0.00 | 73 | 1006.5 |
| 20260902194533 | 56 | 63 | 0.0 | 8.0 | 0.00 | 0.00 | 0.00 | 73 | 1006.6 |
| 20260902193033 | 57 | 336 | 0.0 | 6.0 | 0.00 | 0.00 | 0.00 | 73 | 1006.5 |
| 20260902191532 | 57 | 76 | 0.0 | 6.0 | 0.00 | 0.00 | 0.00 | 75 | 1006.6 |
| 20260902190032 | 57 | 319 | 1.0 | 6.0 | 0.00 | 0.00 | 0.00 | 76 | 1006.5 |
| 20260902184531 | 58 | 333 | 1.0 | 8.0 | 0.00 | 0.00 | 0.00 | 75 | 1006.6 |
| 20260902183031 | 58 | 343 | 0.0 | 7.0 | 0.00 | 0.00 | 0.00 | 74 | 1006.5 |
| 20260902181536 | 58 | 52 | 1.0 | 5.0 | 0.00 | 0.00 | 0.00 | 72 | 1006.4 |
| 20260902180033 | 59 | 328 | 0.0 | 8.0 | 0.00 | 0.00 | 0.00 | 71 | 1006.3 |
| 20260902174529 | 60 | 43 | 3.0 | 10.0 | 0.00 | 0.00 | 0.00 | 69 | 1006.3 |
| 20260902173041 | 60 | 72 | 2.0 | 10.0 | 0.00 | 0.00 | 0.00 | 66 | 1006.3 |
| 20260902171528 | 61 | 131 | 2.0 | 6.0 | 0.00 | 0.00 | 0.00 | 63 | 1006.3 |
| 20260902170028 | 61 | 14 | 1.0 | 10.0 | 0.00 | 0.00 | 0.00 | 61 | 1006.3 |
| 20260902164527 | 62 | 309 | 4.0 | 11.0 | 0.00 | 0.00 | 0.00 | 58 | 1006.3 |
| 20260902163027 | 63 | 56 | 1.0 | 14.0 | 0.00 | 0.00 | 0.00 | 55 | 1006.3 |
| 20260902161526 | 64 | 177 | 1.0 | 13.0 | 0.00 | 0.00 | 0.00 | 55 | 1006.3 |
| 20260902160025 | 64 | 62 | 5.0 | 17.0 | 0.00 | 0.00 | 0.00 | 53 | 1006.2 |
| 20260902154527 | 64 | 161 | 2.0 | 14.0 | 0.00 | 0.00 | 0.00 | 54 | 1006.3 |
| 20260902153030 | 65 | 113 | 2.0 | 14.0 | 0.00 | 0.00 | 0.00 | 51 | 1006.3 |
| 20260902151524 | 65 | 24 | 4.0 | 12.0 | 0.00 | 0.00 | 0.00 | 51 | 1006.3 |
| 20260902150024 | 66 | 311 | 4.0 | 14.0 | 0.00 | 0.00 | 0.00 | 53 | 1006.5 |